Time,TemperatureF,DewpointF,PressureIn,WindDirection,WindDirectionDegrees,WindSpeedMPH,WindSpeedGustMPH,Humidity,HourlyPrecipIn,Conditions,Clouds,dailyrainin,SoftwareType,DateUTC
2013-05-09 00:03:00,70.0,66.0,30.12,ESE,115,0.0,0.0,87,0.00,,,0.00,,2013-05-09 04:03:00,
2013-05-09 00:13:00,70.0,66.0,30.12,ESE,115,0.0,0.0,87,0.00,,,0.00,,2013-05-09 04:13:00,
2013-05-09 00:23:00,70.0,66.0,30.12,ESE,115,0.0,0.0,87,0.00,,,0.00,,2013-05-09 04:23:00,
2013-05-09 00:33:00,69.0,65.0,30.12,ESE,115,0.0,0.0,87,0.00,,,0.00,,2013-05-09 04:33:00,
2013-05-09 00:43:00,69.0,65.0,30.12,ESE,115,0.0,0.0,87,0.00,,,0.00,,2013-05-09 04:43:00,
2013-05-09 00:52:00,70.0,68.0,30.12,ESE,115,0.0,0.0,92,0.00,,,0.00,,2013-05-09 04:52:00,
2013-05-09 01:02:00,70.0,67.0,30.12,ESE,115,0.0,0.0,91,0.00,,,0.00,,2013-05-09 05:02:00,
2013-05-09 01:12:00,70.0,67.0,30.12,ESE,115,0.0,0.0,91,0.00,,,0.00,,2013-05-09 05:12:00,
2013-05-09 01:22:00,70.0,67.0,30.12,NW,304,0.0,1.0,89,0.00,,,0.00,,2013-05-09 05:22:00,
2013-05-09 01:32:00,71.0,67.0,30.11,WNW,300,0.0,4.0,86,0.00,,,0.00,,2013-05-09 05:32:00,
2013-05-09 01:42:00,71.0,67.0,30.11,WNW,300,0.0,4.0,86,0.00,,,0.00,,2013-05-09 05:42:00,
2013-05-09 01:51:00,71.0,65.0,30.11,NNW,329,0.0,4.0,82,0.00,,,0.00,,2013-05-09 05:51:00,
2013-05-09 02:02:00,71.0,64.0,30.11,NW,304,0.0,6.0,79,0.00,,,0.00,,2013-05-09 06:02:00,
2013-05-09 02:12:00,71.0,64.0,30.11,NW,304,0.0,6.0,79,0.00,,,0.00,,2013-05-09 06:12:00,
2013-05-09 02:22:00,71.0,63.0,30.10,NW,312,0.0,8.0,77,0.00,,,0.00,,2013-05-09 06:22:00,
2013-05-09 02:32:00,71.0,64.0,30.10,NW,316,0.0,6.0,78,0.00,,,0.00,,2013-05-09 06:32:00,
2013-05-09 02:42:00,71.0,64.0,30.10,NW,316,0.0,6.0,78,0.00,,,0.00,,2013-05-09 06:42:00,
2013-05-09 02:52:00,70.0,63.0,30.09,NNW,334,0.0,4.0,78,0.00,,,0.00,,2013-05-09 06:52:00,
2013-05-09 03:01:00,70.0,63.0,30.09,NW,318,0.0,8.0,79,0.00,,,0.00,,2013-05-09 07:01:00,
2013-05-09 03:12:00,70.0,63.0,30.09,NW,318,0.0,8.0,79,0.00,,,0.00,,2013-05-09 07:12:00,
2013-05-09 03:21:00,69.0,63.0,30.09,NW,325,0.0,1.0,80,0.00,,,0.00,,2013-05-09 07:21:00,
2013-05-09 03:32:00,69.0,63.0,30.09,NW,319,0.0,4.0,81,0.00,,,0.00,,2013-05-09 07:32:00,
2013-05-09 03:42:00,69.0,63.0,30.09,NW,319,0.0,4.0,81,0.00,,,0.00,,2013-05-09 07:42:00,
2013-05-09 03:52:00,69.0,63.0,30.09,NW,317,0.0,3.0,82,0.00,,,0.00,,2013-05-09 07:52:00,
2013-05-09 04:02:00,68.0,62.0,30.09,NW,317,0.0,0.0,82,0.00,,,0.00,,2013-05-09 08:02:00,
2013-05-09 04:11:00,68.0,62.0,30.09,NW,317,0.0,0.0,82,0.00,,,0.00,,2013-05-09 08:11:00,
2013-05-09 04:21:00,68.0,63.0,30.08,NW,317,0.0,0.0,83,0.00,,,0.00,,2013-05-09 08:21:00,
2013-05-09 04:32:00,67.0,62.0,30.08,NW,317,0.0,0.0,85,0.00,,,0.00,,2013-05-09 08:32:00,
2013-05-09 04:42:00,67.0,62.0,30.08,NW,317,0.0,0.0,85,0.00,,,0.00,,2013-05-09 08:42:00,
2013-05-09 04:52:00,67.0,63.0,30.08,NW,317,0.0,0.0,86,0.00,,,0.00,,2013-05-09 08:52:00,
2013-05-09 05:02:00,67.0,63.0,30.08,NW,317,0.0,0.0,87,0.00,,,0.00,,2013-05-09 09:02:00,
2013-05-09 05:12:00,67.0,63.0,30.08,NW,317,0.0,0.0,87,0.00,,,0.00,,2013-05-09 09:12:00,
2013-05-09 05:21:00,66.0,62.0,30.08,NW,317,0.0,0.0,87,0.00,,,0.00,,2013-05-09 09:21:00,
2013-05-09 05:32:00,66.0,62.0,30.09,NW,317,0.0,0.0,88,0.00,,,0.00,,2013-05-09 09:32:00,
2013-05-09 05:43:00,66.0,62.0,30.09,NW,317,0.0,0.0,88,0.00,,,0.00,,2013-05-09 09:43:00,
2013-05-09 05:53:00,66.0,63.0,30.09,NW,317,0.0,0.0,89,0.00,,,0.00,,2013-05-09 09:53:00,
2013-05-09 06:02:00,66.0,63.0,30.08,NW,317,0.0,3.0,89,0.00,,,0.00,,2013-05-09 10:02:00,
2013-05-09 06:12:00,66.0,63.0,30.08,NW,317,0.0,3.0,89,0.00,,,0.00,,2013-05-09 10:12:00,
2013-05-09 06:23:00,66.0,63.0,30.08,NW,317,0.0,0.0,89,0.00,,,0.00,,2013-05-09 10:23:00,
2013-05-09 06:33:00,66.0,63.0,30.09,NW,317,0.0,0.0,90,0.00,,,0.00,,2013-05-09 10:33:00,
2013-05-09 06:42:00,66.0,63.0,30.09,NW,317,0.0,0.0,90,0.00,,,0.00,,2013-05-09 10:42:00,
2013-05-09 06:52:00,65.0,62.0,30.09,NW,317,0.0,0.0,91,0.00,,,0.00,,2013-05-09 10:52:00,
2013-05-09 07:02:00,65.0,63.0,30.10,NW,317,0.0,0.0,92,0.00,,,0.00,,2013-05-09 11:02:00,
2013-05-09 07:12:00,65.0,63.0,30.10,NW,317,0.0,0.0,92,0.00,,,0.00,,2013-05-09 11:12:00,
2013-05-09 07:22:00,65.0,63.0,30.10,NW,317,0.0,0.0,93,0.00,,,0.00,,2013-05-09 11:22:00,
2013-05-09 07:32:00,65.0,63.0,30.11,NW,317,0.0,0.0,93,0.00,,,0.00,,2013-05-09 11:32:00,
2013-05-09 07:42:00,65.0,63.0,30.11,NW,317,0.0,0.0,93,0.00,,,0.00,,2013-05-09 11:42:00,
2013-05-09 07:52:00,66.0,64.0,30.11,North,360,0.0,0.0,93,0.00,,,0.00,,2013-05-09 11:52:00,
2013-05-09 08:01:00,68.0,65.0,30.11,North,360,0.0,0.0,91,0.00,,,0.00,,2013-05-09 12:01:00,
2013-05-09 08:12:00,68.0,65.0,30.11,North,360,0.0,0.0,91,0.00,,,0.00,,2013-05-09 12:12:00,
2013-05-09 08:22:00,68.0,65.0,30.11,North,360,0.0,0.0,91,0.00,,,0.00,,2013-05-09 12:22:00,
2013-05-09 08:32:00,72.0,67.0,30.12,North,5,0.0,1.0,85,0.00,,,0.00,,2013-05-09 12:32:00,
2013-05-09 08:43:00,72.0,67.0,30.12,North,5,0.0,1.0,85,0.00,,,0.00,,2013-05-09 12:43:00,
2013-05-09 08:52:00,74.0,68.0,30.12,North,5,0.0,2.0,83,0.00,,,0.00,,2013-05-09 12:52:00,
2013-05-09 09:01:00,76.0,69.0,30.12,North,5,0.0,3.0,80,0.00,,,0.00,,2013-05-09 13:01:00,
2013-05-09 09:12:00,76.0,69.0,30.12,North,5,0.0,3.0,80,0.00,,,0.00,,2013-05-09 13:12:00,
2013-05-09 09:22:00,78.0,70.0,30.12,North,5,0.0,1.0,77,0.00,,,0.00,,2013-05-09 13:22:00,
2013-05-09 09:32:00,79.0,70.0,30.13,North,5,0.0,0.0,75,0.00,,,0.00,,2013-05-09 13:32:00,
2013-05-09 09:42:00,79.0,70.0,30.13,North,5,0.0,0.0,75,0.00,,,0.00,,2013-05-09 13:42:00,
2013-05-09 09:52:00,81.0,71.0,30.13,North,5,0.0,1.0,72,0.00,,,0.00,,2013-05-09 13:52:00,
2013-05-09 10:02:00,82.0,70.0,30.13,North,5,0.0,2.0,67,0.00,,,0.00,,2013-05-09 14:02:00,
2013-05-09 10:11:00,82.0,70.0,30.13,North,5,0.0,2.0,67,0.00,,,0.00,,2013-05-09 14:11:00,
2013-05-09 10:22:00,83.0,69.0,30.14,North,5,0.0,1.0,62,0.00,,,0.00,,2013-05-09 14:22:00,
2013-05-09 10:32:00,83.0,67.0,30.14,NE,51,0.0,2.0,59,0.00,,,0.00,,2013-05-09 14:32:00,
2013-05-09 10:42:00,83.0,67.0,30.14,NE,51,0.0,2.0,59,0.00,,,0.00,,2013-05-09 14:42:00,
2013-05-09 10:52:00,84.0,68.0,30.14,NE,51,0.0,0.0,58,0.00,,,0.00,,2013-05-09 14:52:00,
2013-05-09 11:02:00,85.0,70.0,30.14,SE,126,0.0,4.0,60,0.00,,,0.00,,2013-05-09 15:02:00,
2013-05-09 11:11:00,85.0,70.0,30.14,SE,126,0.0,4.0,60,0.00,,,0.00,,2013-05-09 15:11:00,
2013-05-09 11:22:00,85.0,69.0,30.14,SSW,198,0.0,5.0,58,0.00,,,0.00,,2013-05-09 15:22:00,
2013-05-09 11:33:00,85.0,67.0,30.14,SSE,148,0.0,2.0,55,0.00,,,0.00,,2013-05-09 15:33:00,
2013-05-09 11:43:00,85.0,67.0,30.14,SSE,148,0.0,2.0,55,0.00,,,0.00,,2013-05-09 15:43:00,
2013-05-09 11:53:00,85.0,68.0,30.14,SSE,161,0.0,8.0,57,0.00,,,0.00,,2013-05-09 15:53:00,
2013-05-09 12:03:00,85.0,68.0,30.14,SSW,211,0.0,5.0,56,0.00,,,0.00,,2013-05-09 16:03:00,
2013-05-09 12:12:00,85.0,68.0,30.14,SSW,211,0.0,5.0,56,0.00,,,0.00,,2013-05-09 16:12:00,
2013-05-09 12:23:00,86.0,68.0,30.14,South,182,1.0,7.0,56,0.00,,,0.00,,2013-05-09 16:23:00,
2013-05-09 12:33:00,86.0,69.0,30.14,South,189,0.0,5.0,57,0.00,,,0.00,,2013-05-09 16:33:00,
2013-05-09 12:42:00,86.0,69.0,30.14,South,189,0.0,5.0,57,0.00,,,0.00,,2013-05-09 16:42:00,
2013-05-09 12:52:00,87.0,69.0,30.14,West,276,2.0,8.0,55,0.00,,,0.00,,2013-05-09 16:52:00,
2013-05-09 13:02:00,87.0,69.0,30.14,SW,217,1.0,7.0,55,0.00,,,0.00,,2013-05-09 17:02:00,
2013-05-09 13:12:00,87.0,69.0,30.14,SW,217,1.0,7.0,55,0.00,,,0.00,,2013-05-09 17:12:00,
2013-05-09 13:22:00,88.0,71.0,30.14,West,271,0.0,7.0,57,0.00,,,0.00,,2013-05-09 17:22:00,
2013-05-09 13:32:00,88.0,71.0,30.14,West,271,0.0,7.0,57,0.00,,,0.00,,2013-05-09 17:32:00,
2013-05-09 13:42:00,88.0,71.0,30.14,West,271,0.0,7.0,57,0.00,,,0.00,,2013-05-09 17:42:00,
2013-05-09 13:55:00,87.0,68.0,30.13,SSW,196,1.0,4.0,53,0.00,,,0.00,,2013-05-09 17:55:00,
2013-05-09 14:02:00,88.0,67.0,30.13,South,182,0.0,6.0,50,0.00,,,0.00,,2013-05-09 18:02:00,
2013-05-09 14:12:00,88.0,67.0,30.13,South,182,0.0,6.0,50,0.00,,,0.00,,2013-05-09 18:12:00,
2013-05-09 14:22:00,86.0,72.0,30.13,East,89,0.0,9.0,63,0.00,,,0.00,,2013-05-09 18:22:00,
2013-05-09 14:32:00,85.0,72.0,30.12,ESE,108,2.0,11.0,66,0.00,,,0.00,,2013-05-09 18:32:00,
2013-05-09 14:42:00,85.0,72.0,30.12,ESE,108,2.0,11.0,66,0.00,,,0.00,,2013-05-09 18:42:00,
2013-05-09 14:52:00,84.0,72.0,30.12,ESE,118,6.0,11.0,67,0.00,,,0.00,,2013-05-09 18:52:00,
2013-05-09 15:01:00,84.0,73.0,30.11,ESE,103,3.0,10.0,70,0.00,,,0.00,,2013-05-09 19:01:00,
2013-05-09 15:12:00,84.0,73.0,30.11,ESE,103,3.0,10.0,70,0.00,,,0.00,,2013-05-09 19:12:00,
2013-05-09 15:21:00,85.0,72.0,30.11,East,96,4.0,9.0,66,0.00,,,0.00,,2013-05-09 19:21:00,
2013-05-09 15:32:00,85.0,72.0,30.10,ENE,61,1.0,8.0,66,0.00,,,0.00,,2013-05-09 19:32:00,
2013-05-09 15:42:00,85.0,72.0,30.10,ENE,61,1.0,8.0,66,0.00,,,0.00,,2013-05-09 19:42:00,
2013-05-09 15:52:00,85.0,71.0,30.10,ESE,105,1.0,9.0,64,0.00,,,0.00,,2013-05-09 19:52:00,
2013-05-09 16:01:00,86.0,72.0,30.09,South,178,2.0,11.0,64,0.00,,,0.00,,2013-05-09 20:01:00,
2013-05-09 16:11:00,86.0,72.0,30.09,South,178,2.0,11.0,64,0.00,,,0.00,,2013-05-09 20:11:00,
2013-05-09 16:22:00,84.0,72.0,30.08,SE,137,0.0,8.0,67,0.00,,,0.00,,2013-05-09 20:22:00,
2013-05-09 16:32:00,83.0,71.0,30.08,ENE,61,0.0,12.0,68,0.00,,,0.00,,2013-05-09 20:32:00,
2013-05-09 16:42:00,84.0,72.0,30.07,East,98,3.0,8.0,67,0.00,,,0.00,,2013-05-09 20:42:00,
2013-05-09 16:52:00,84.0,72.0,30.07,East,98,3.0,8.0,67,0.00,,,0.00,,2013-05-09 20:52:00,
2013-05-09 17:02:00,84.0,72.0,30.07,East,100,3.0,11.0,68,0.00,,,0.00,,2013-05-09 21:02:00,
2013-05-09 17:12:00,84.0,72.0,30.07,East,100,3.0,11.0,68,0.00,,,0.00,,2013-05-09 21:12:00,
2013-05-09 17:22:00,84.0,73.0,30.07,East,88,1.0,9.0,69,0.00,,,0.00,,2013-05-09 21:22:00,
2013-05-09 17:33:00,83.0,72.0,30.07,East,91,5.0,11.0,70,0.00,,,0.00,,2013-05-09 21:33:00,
2013-05-09 17:43:00,82.0,72.0,30.07,SSE,148,1.0,7.0,73,0.00,,,0.00,,2013-05-09 21:43:00,
2013-05-09 17:52:00,82.0,72.0,30.07,SSE,148,1.0,7.0,73,0.00,,,0.00,,2013-05-09 21:52:00,
2013-05-09 18:03:00,82.0,72.0,30.08,SE,126,2.0,9.0,72,0.00,,,0.00,,2013-05-09 22:03:00,
2013-05-09 18:13:00,82.0,72.0,30.08,ESE,122,2.0,9.0,73,0.00,,,0.00,,2013-05-09 22:13:00,
2013-05-09 18:23:00,82.0,72.0,30.08,ESE,122,2.0,9.0,73,0.00,,,0.00,,2013-05-09 22:23:00,
2013-05-09 18:33:00,82.0,73.0,30.08,ESE,115,1.0,6.0,74,0.00,,,0.00,,2013-05-09 22:33:00,
2013-05-09 18:42:00,82.0,73.0,30.07,ESE,119,2.0,12.0,75,0.00,,,0.00,,2013-05-09 22:42:00,
2013-05-09 18:52:00,82.0,73.0,30.07,ESE,119,2.0,12.0,75,0.00,,,0.00,,2013-05-09 22:52:00,
2013-05-09 19:02:00,82.0,74.0,30.08,ESE,113,2.0,11.0,76,0.00,,,0.00,,2013-05-09 23:02:00,
2013-05-09 19:12:00,82.0,74.0,30.08,ESE,113,2.0,11.0,76,0.00,,,0.00,,2013-05-09 23:12:00,
2013-05-09 19:22:00,81.0,73.0,30.08,ESE,109,1.0,12.0,78,0.00,,,0.00,,2013-05-09 23:22:00,
2013-05-09 19:32:00,81.0,74.0,30.08,South,169,1.0,9.0,79,0.00,,,0.00,,2013-05-09 23:32:00,
2013-05-09 19:42:00,81.0,74.0,30.08,South,169,1.0,9.0,79,0.00,,,0.00,,2013-05-09 23:42:00,
2013-05-09 19:52:00,80.0,73.0,30.08,SE,135,0.0,7.0,80,0.00,,,0.00,,2013-05-09 23:52:00,
2013-05-09 20:01:00,80.0,73.0,30.08,ESE,120,1.0,7.0,80,0.00,,,0.00,,2013-05-10 00:01:00,
2013-05-09 20:11:00,79.0,73.0,30.08,East,86,0.0,8.0,81,0.00,,,0.00,,2013-05-10 00:11:00,
2013-05-09 20:22:00,79.0,73.0,30.08,East,86,0.0,8.0,81,0.00,,,0.00,,2013-05-10 00:22:00,
2013-05-09 20:32:00,79.0,73.0,30.10,ESE,120,0.0,6.0,82,0.00,,,0.00,,2013-05-10 00:32:00,
2013-05-09 20:42:00,79.0,73.0,30.10,SE,133,0.0,4.0,82,0.00,,,0.00,,2013-05-10 00:42:00,
2013-05-09 20:52:00,79.0,73.0,30.10,SE,133,0.0,4.0,82,0.00,,,0.00,,2013-05-10 00:52:00,
2013-05-09 21:01:00,79.0,73.0,30.10,SE,133,0.0,4.0,82,0.00,,,0.00,,2013-05-10 01:01:00,
2013-05-09 21:11:00,79.0,73.0,30.10,SE,133,0.0,4.0,82,0.00,,,0.00,,2013-05-10 01:11:00,
2013-05-09 21:22:00,79.0,73.0,30.11,SE,134,0.0,2.0,83,0.00,,,0.00,,2013-05-10 01:22:00,
2013-05-09 21:32:00,78.0,73.0,30.11,SE,132,0.0,0.0,84,0.00,,,0.00,,2013-05-10 01:32:00,
2013-05-09 21:42:00,78.0,73.0,30.11,SE,132,0.0,0.0,85,0.00,,,0.00,,2013-05-10 01:42:00,
2013-05-09 21:52:00,78.0,73.0,30.11,SE,132,0.0,0.0,85,0.00,,,0.00,,2013-05-10 01:52:00,
2013-05-09 22:02:00,77.0,72.0,30.12,SE,128,0.0,1.0,86,0.00,,,0.00,,2013-05-10 02:02:00,
2013-05-09 22:11:00,77.0,73.0,30.12,SE,128,0.0,0.0,87,0.00,,,0.00,,2013-05-10 02:11:00,
2013-05-09 22:21:00,77.0,73.0,30.12,SE,128,0.0,0.0,87,0.00,,,0.00,,2013-05-10 02:21:00,
2013-05-09 22:32:00,77.0,73.0,30.12,SE,127,0.0,0.0,87,0.00,,,0.00,,2013-05-10 02:32:00,
2013-05-09 22:42:00,77.0,73.0,30.13,ESE,119,0.0,2.0,88,0.00,,,0.00,,2013-05-10 02:42:00,
2013-05-09 22:52:00,77.0,73.0,30.13,ESE,119,0.0,2.0,88,0.00,,,0.00,,2013-05-10 02:52:00,
2013-05-09 23:01:00,77.0,73.0,30.12,ESE,119,0.0,1.0,88,0.00,,,0.00,,2013-05-10 03:01:00,
2013-05-09 23:11:00,77.0,73.0,30.12,ESE,119,0.0,1.0,88,0.00,,,0.00,,2013-05-10 03:11:00,
2013-05-09 23:22:00,77.0,73.0,30.12,ESE,121,0.0,2.0,88,0.00,,,0.00,,2013-05-10 03:22:00,
2013-05-09 23:33:00,77.0,73.0,30.13,SE,139,0.0,3.0,88,0.00,,,0.00,,2013-05-10 03:33:00,
2013-05-09 23:43:00,77.0,73.0,30.13,SE,139,0.0,3.0,88,0.00,,,0.00,,2013-05-10 03:43:00,
2013-05-09 23:53:00,77.0,73.0,30.13,ESE,107,0.0,0.0,88,0.00,,,0.00,,2013-05-10 03:53:00,